Time,TemperatureF,DewpointF,PressureIn,WindDirection,WindDirectionDegrees,WindSpeedMPH,WindSpeedGustMPH,Humidity,HourlyPrecipIn,Conditions,Clouds,dailyrainin,SoftwareType,DateUTC
2013-04-08 00:02:00,56.0,53.0,29.67,North,355,0.0,0.0,90,0.29,,,0.47,,2013-04-08 05:02:00,
2013-04-08 00:12:00,56.0,53.0,29.67,North,355,0.0,0.0,90,0.29,,,0.47,,2013-04-08 05:12:00,
2013-04-08 00:22:00,56.0,53.0,29.67,North,355,0.0,0.0,90,0.29,,,0.47,,2013-04-08 05:22:00,
2013-04-08 00:32:00,55.0,53.0,29.69,North,9,4.0,4.0,92,0.26,,,0.47,,2013-04-08 05:32:00,
2013-04-08 00:42:00,54.0,51.0,29.67,North,5,0.0,0.0,91,0.25,,,0.47,,2013-04-08 05:42:00,
2013-04-08 00:52:00,54.0,51.0,29.67,North,5,0.0,0.0,91,0.25,,,0.47,,2013-04-08 05:52:00,
2013-04-08 01:02:00,53.0,50.0,29.66,North,5,0.0,0.0,91,0.00,,,0.47,,2013-04-08 06:02:00,
2013-04-08 01:12:00,53.0,50.0,29.66,North,5,0.0,0.0,91,0.00,,,0.47,,2013-04-08 06:12:00,
2013-04-08 01:22:00,52.0,49.0,29.67,North,5,0.0,0.0,91,0.00,,,0.47,,2013-04-08 06:22:00,
2013-04-08 01:32:00,52.0,50.0,29.67,North,5,0.0,0.0,92,0.00,,,0.47,,2013-04-08 06:32:00,
2013-04-08 01:42:00,52.0,50.0,29.67,North,5,0.0,0.0,92,0.00,,,0.47,,2013-04-08 06:42:00,
2013-04-08 01:52:00,52.0,50.0,29.67,North,5,0.0,0.0,92,0.00,,,0.47,,2013-04-08 06:52:00,
2013-04-08 02:02:00,52.0,50.0,29.67,North,5,0.0,0.0,92,0.00,,,0.47,,2013-04-08 07:02:00,
2013-04-08 02:12:00,52.0,50.0,29.67,North,5,0.0,0.0,92,0.00,,,0.47,,2013-04-08 07:12:00,
2013-04-08 02:22:00,51.0,49.0,29.67,North,5,0.0,0.0,93,0.00,,,0.47,,2013-04-08 07:22:00,
2013-04-08 02:33:00,51.0,49.0,29.67,North,5,0.0,0.0,93,0.00,,,0.47,,2013-04-08 07:33:00,
2013-04-08 02:42:00,51.0,49.0,29.67,North,5,0.0,0.0,93,0.00,,,0.47,,2013-04-08 07:42:00,
2013-04-08 02:52:00,51.0,49.0,29.66,North,5,0.0,0.0,93,0.00,,,0.47,,2013-04-08 07:52:00,
2013-04-08 03:02:00,51.0,49.0,29.66,North,5,3.0,3.0,94,0.00,,,0.47,,2013-04-08 08:02:00,
2013-04-08 03:12:00,51.0,49.0,29.66,North,5,3.0,3.0,94,0.00,,,0.47,,2013-04-08 08:12:00,
2013-04-08 03:22:00,51.0,49.0,29.66,North,5,3.0,3.0,94,0.00,,,0.47,,2013-04-08 08:22:00,
2013-04-08 03:32:00,52.0,50.0,29.65,North,5,0.0,0.0,94,0.00,,,0.47,,2013-04-08 08:32:00,
2013-04-08 03:42:00,52.0,50.0,29.65,North,5,0.0,0.0,93,0.00,,,0.47,,2013-04-08 08:42:00,
2013-04-08 03:52:00,52.0,50.0,29.65,North,5,0.0,0.0,93,0.00,,,0.47,,2013-04-08 08:52:00,
2013-04-08 04:02:00,52.0,50.0,29.64,North,5,0.0,0.0,93,0.00,,,0.47,,2013-04-08 09:02:00,
2013-04-08 04:12:00,52.0,50.0,29.64,North,5,0.0,0.0,94,0.00,,,0.47,,2013-04-08 09:12:00,
2013-04-08 04:22:00,52.0,50.0,29.64,North,5,0.0,0.0,94,0.00,,,0.47,,2013-04-08 09:22:00,
2013-04-08 04:33:00,53.0,51.0,29.64,North,5,0.0,0.0,94,0.00,,,0.47,,2013-04-08 09:33:00,
2013-04-08 04:43:00,53.0,51.0,29.64,North,5,0.0,0.0,94,0.00,,,0.47,,2013-04-08 09:43:00,
2013-04-08 04:53:00,53.0,51.0,29.64,North,5,0.0,0.0,94,0.00,,,0.47,,2013-04-08 09:53:00,
2013-04-08 05:03:00,53.0,51.0,29.63,North,5,0.0,0.0,94,0.00,,,0.47,,2013-04-08 10:03:00,
2013-04-08 05:13:00,53.0,51.0,29.63,North,5,0.0,0.0,94,0.00,,,0.47,,2013-04-08 10:13:00,
2013-04-08 05:23:00,53.0,51.0,29.63,North,5,0.0,0.0,94,0.00,,,0.47,,2013-04-08 10:23:00,
2013-04-08 05:33:00,53.0,51.0,29.63,North,5,0.0,0.0,94,0.00,,,0.47,,2013-04-08 10:33:00,
2013-04-08 05:42:00,53.0,51.0,29.63,North,5,0.0,0.0,94,0.00,,,0.47,,2013-04-08 10:42:00,
2013-04-08 05:52:00,53.0,51.0,29.63,North,5,0.0,0.0,94,0.00,,,0.47,,2013-04-08 10:52:00,
2013-04-08 06:02:00,53.0,52.0,29.62,North,5,0.0,0.0,95,0.00,,,0.47,,2013-04-08 11:02:00,
2013-04-08 06:12:00,53.0,52.0,29.62,North,5,0.0,0.0,95,0.00,,,0.47,,2013-04-08 11:12:00,
2013-04-08 06:22:00,53.0,52.0,29.62,North,5,0.0,0.0,95,0.00,,,0.47,,2013-04-08 11:22:00,
2013-04-08 06:32:00,54.0,53.0,29.62,North,5,0.0,0.0,95,0.00,,,0.47,,2013-04-08 11:32:00,
2013-04-08 06:42:00,54.0,53.0,29.62,North,5,0.0,0.0,95,0.00,,,0.47,,2013-04-08 11:42:00,
2013-04-08 06:52:00,54.0,53.0,29.63,North,5,0.0,0.0,95,0.00,,,0.47,,2013-04-08 11:52:00,
2013-04-08 07:03:00,54.0,53.0,29.64,North,5,0.0,0.0,95,0.00,,,0.47,,2013-04-08 12:03:00,
2013-04-08 07:12:00,54.0,53.0,29.64,North,5,0.0,0.0,95,0.00,,,0.47,,2013-04-08 12:12:00,
2013-04-08 07:23:00,54.0,53.0,29.64,North,5,0.0,0.0,95,0.00,,,0.47,,2013-04-08 12:23:00,
2013-04-08 07:33:00,54.0,53.0,29.65,North,5,0.0,0.0,95,0.00,,,0.47,,2013-04-08 12:33:00,
2013-04-08 07:42:00,54.0,53.0,29.65,North,5,0.0,0.0,95,0.00,,,0.47,,2013-04-08 12:42:00,
2013-04-08 07:52:00,55.0,54.0,29.65,North,5,0.0,0.0,96,0.00,,,0.47,,2013-04-08 12:52:00,
2013-04-08 08:03:00,56.0,55.0,29.66,North,5,0.0,0.0,95,0.00,,,0.47,,2013-04-08 13:03:00,
2013-04-08 08:12:00,56.0,55.0,29.66,North,5,0.0,0.0,95,0.00,,,0.47,,2013-04-08 13:12:00,
2013-04-08 08:22:00,57.0,56.0,29.67,North,5,0.0,0.0,96,0.00,,,0.47,,2013-04-08 13:22:00,
2013-04-08 08:32:00,59.0,58.0,29.67,North,5,2.0,2.0,96,0.00,,,0.47,,2013-04-08 13:32:00,
2013-04-08 08:42:00,59.0,58.0,29.67,North,5,2.0,2.0,96,0.00,,,0.47,,2013-04-08 13:42:00,
2013-04-08 08:52:00,59.0,58.0,29.67,SSE,164,5.0,5.0,95,0.00,,,0.47,,2013-04-08 13:52:00,
2013-04-08 09:02:00,60.0,59.0,29.67,SSE,164,0.0,0.0,95,0.00,,,0.47,,2013-04-08 14:02:00,
2013-04-08 09:12:00,60.0,59.0,29.67,SSE,164,0.0,0.0,95,0.00,,,0.47,,2013-04-08 14:12:00,
2013-04-08 09:22:00,60.0,58.0,29.66,SSE,164,0.0,0.0,94,0.00,,,0.47,,2013-04-08 14:22:00,
2013-04-08 09:32:00,60.0,58.0,29.65,SSE,164,0.0,0.0,93,0.00,,,0.47,,2013-04-08 14:32:00,
2013-04-08 09:42:00,60.0,58.0,29.66,SSE,164,0.0,0.0,92,0.00,,,0.47,,2013-04-08 14:42:00,
2013-04-08 09:52:00,60.0,58.0,29.66,SSE,164,0.0,0.0,92,0.00,,,0.47,,2013-04-08 14:52:00,
2013-04-08 10:02:00,61.0,58.0,29.66,South,171,0.0,0.0,91,0.00,,,0.47,,2013-04-08 15:02:00,
2013-04-08 10:12:00,61.0,58.0,29.67,South,171,0.0,0.0,91,0.00,,,0.47,,2013-04-08 15:12:00,
2013-04-08 10:22:00,61.0,58.0,29.67,South,171,0.0,0.0,91,0.00,,,0.47,,2013-04-08 15:22:00,
2013-04-08 10:33:00,62.0,59.0,29.67,South,171,1.0,1.0,90,0.00,,,0.47,,2013-04-08 15:33:00,
2013-04-08 10:43:00,62.0,59.0,29.67,South,171,1.0,1.0,90,0.00,,,0.47,,2013-04-08 15:43:00,
2013-04-08 10:52:00,63.0,60.0,29.67,South,171,0.0,0.0,89,0.00,,,0.47,,2013-04-08 15:52:00,
2013-04-08 11:03:00,64.0,60.0,29.67,South,188,10.0,10.0,86,0.00,,,0.47,,2013-04-08 16:03:00,
2013-04-08 11:13:00,65.0,59.0,29.67,South,186,10.0,10.0,82,0.00,,,0.47,,2013-04-08 16:13:00,
2013-04-08 11:22:00,65.0,59.0,29.67,South,186,10.0,10.0,82,0.00,,,0.47,,2013-04-08 16:22:00,
2013-04-08 11:32:00,65.0,59.0,29.67,South,186,10.0,10.0,82,0.00,,,0.47,,2013-04-08 16:32:00,
2013-04-08 11:42:00,66.0,60.0,29.67,South,173,5.0,5.0,81,0.00,,,0.47,,2013-04-08 16:42:00,
2013-04-08 11:53:00,66.0,60.0,29.68,South,182,5.0,5.0,80,0.00,,,0.47,,2013-04-08 16:53:00,
2013-04-08 12:03:00,67.0,60.0,29.69,South,182,0.0,0.0,79,0.00,,,0.47,,2013-04-08 17:03:00,
2013-04-08 12:12:00,68.0,61.0,29.68,South,178,0.0,0.0,78,0.00,,,0.47,,2013-04-08 17:12:00,
2013-04-08 12:22:00,68.0,61.0,29.68,South,178,0.0,0.0,78,0.00,,,0.47,,2013-04-08 17:22:00,
2013-04-08 12:32:00,68.0,61.0,29.68,SSE,167,5.0,5.0,77,0.00,,,0.47,,2013-04-08 17:32:00,
2013-04-08 12:43:00,68.0,61.0,29.68,SSE,167,5.0,5.0,77,0.00,,,0.47,,2013-04-08 17:43:00,
2013-04-08 12:52:00,68.0,61.0,29.68,SSE,165,6.0,6.0,77,0.00,,,0.47,,2013-04-08 17:52:00,
2013-04-08 13:02:00,68.0,61.0,29.67,SSE,167,10.0,10.0,77,0.00,,,0.47,,2013-04-08 18:02:00,
2013-04-08 13:12:00,68.0,61.0,29.67,SSE,167,10.0,10.0,77,0.00,,,0.47,,2013-04-08 18:12:00,
2013-04-08 13:22:00,67.0,60.0,29.68,SSE,166,6.0,6.0,78,0.00,,,0.47,,2013-04-08 18:22:00,
2013-04-08 13:32:00,67.0,60.0,29.67,South,182,0.0,0.0,79,0.00,,,0.47,,2013-04-08 18:32:00,
2013-04-08 13:42:00,67.0,60.0,29.68,South,169,7.0,7.0,79,0.00,,,0.47,,2013-04-08 18:42:00,
2013-04-08 13:52:00,67.0,60.0,29.68,South,169,7.0,7.0,79,0.00,,,0.47,,2013-04-08 18:52:00,
2013-04-08 14:02:00,68.0,61.0,29.69,South,173,3.0,3.0,78,0.00,,,0.47,,2013-04-08 19:02:00,
2013-04-08 14:12:00,69.0,61.0,29.67,South,173,6.0,6.0,76,0.00,,,0.47,,2013-04-08 19:12:00,
2013-04-08 14:22:00,69.0,61.0,29.67,South,173,6.0,6.0,76,0.00,,,0.47,,2013-04-08 19:22:00,
2013-04-08 14:33:00,70.0,61.0,29.66,South,173,1.0,1.0,74,0.00,,,0.47,,2013-04-08 19:33:00,
2013-04-08 14:42:00,71.0,62.0,29.67,South,169,4.0,4.0,73,0.00,,,0.47,,2013-04-08 19:42:00,
2013-04-08 14:52:00,71.0,62.0,29.67,South,169,4.0,4.0,73,0.00,,,0.47,,2013-04-08 19:52:00,
2013-04-08 15:02:00,72.0,62.0,29.66,SSE,168,0.0,0.0,70,0.00,,,0.47,,2013-04-08 20:02:00,
2013-04-08 15:12:00,72.0,62.0,29.65,South,171,0.0,0.0,70,0.00,,,0.47,,2013-04-08 20:12:00,
2013-04-08 15:22:00,72.0,62.0,29.65,South,171,0.0,0.0,70,0.00,,,0.47,,2013-04-08 20:22:00,
2013-04-08 15:33:00,72.0,61.0,29.65,SSE,157,9.0,9.0,69,0.01,,,0.48,,2013-04-08 20:33:00,
2013-04-08 15:43:00,72.0,61.0,29.65,SSE,157,9.0,9.0,69,0.01,,,0.48,,2013-04-08 20:43:00,
2013-04-08 15:52:00,73.0,62.0,29.65,South,176,7.0,7.0,68,0.01,,,0.48,,2013-04-08 20:52:00,
2013-04-08 16:02:00,73.0,62.0,29.64,SSE,149,11.0,11.0,68,0.01,,,0.48,,2013-04-08 21:02:00,
2013-04-08 16:12:00,73.0,62.0,29.64,SSE,155,7.0,7.0,69,0.01,,,0.48,,2013-04-08 21:12:00,
2013-04-08 16:22:00,73.0,62.0,29.64,SSE,155,7.0,7.0,69,0.01,,,0.48,,2013-04-08 21:22:00,
2013-04-08 16:32:00,73.0,61.0,29.63,South,178,15.0,15.0,66,0.01,,,0.48,,2013-04-08 21:32:00,
2013-04-08 16:43:00,73.0,61.0,29.63,South,178,15.0,15.0,66,0.01,,,0.48,,2013-04-08 21:43:00,
2013-04-08 16:52:00,72.0,61.0,29.62,SSE,161,7.0,7.0,68,0.00,,,0.48,,2013-04-08 21:52:00,
2013-04-08 17:03:00,73.0,62.0,29.62,SSE,164,0.0,0.0,68,0.00,,,0.48,,2013-04-08 22:03:00,
2013-04-08 17:13:00,73.0,62.0,29.62,SSE,164,0.0,0.0,68,0.00,,,0.48,,2013-04-08 22:13:00,
2013-04-08 17:22:00,72.0,61.0,29.62,SSE,164,3.0,3.0,69,0.00,,,0.48,,2013-04-08 22:22:00,
2013-04-08 17:32:00,72.0,61.0,29.62,SSE,164,3.0,3.0,69,0.00,,,0.48,,2013-04-08 22:32:00,
2013-04-08 17:43:00,72.0,61.0,29.62,SSE,167,7.0,7.0,69,0.00,,,0.48,,2013-04-08 22:43:00,
2013-04-08 17:52:00,72.0,61.0,29.62,SSE,157,4.0,4.0,68,0.00,,,0.48,,2013-04-08 22:52:00,
2013-04-08 18:02:00,72.0,60.0,29.62,SSE,157,13.0,13.0,67,0.00,,,0.48,,2013-04-08 23:02:00,
2013-04-08 18:12:00,72.0,60.0,29.62,SSE,157,13.0,13.0,67,0.00,,,0.48,,2013-04-08 23:12:00,
2013-04-08 18:22:00,72.0,60.0,29.62,SSE,157,13.0,13.0,67,0.00,,,0.48,,2013-04-08 23:22:00,
2013-04-08 18:32:00,72.0,61.0,29.63,SSE,161,0.0,0.0,69,0.00,,,0.48,,2013-04-08 23:32:00,
2013-04-08 18:42:00,72.0,61.0,29.63,SSE,161,0.0,0.0,69,0.00,,,0.48,,2013-04-08 23:42:00,
2013-04-08 18:52:00,71.0,60.0,29.63,SSE,162,4.0,4.0,69,0.00,,,0.48,,2013-04-08 23:52:00,
2013-04-08 19:02:00,71.0,60.0,29.63,SSE,167,12.0,12.0,68,0.00,,,0.48,,2013-04-09 00:02:00,
2013-04-08 19:12:00,71.0,60.0,29.63,SSE,167,12.0,12.0,68,0.00,,,0.48,,2013-04-09 00:12:00,
2013-04-08 19:22:00,70.0,59.0,29.64,South,173,9.0,9.0,69,0.00,,,0.48,,2013-04-09 00:22:00,
2013-04-08 19:32:00,70.0,60.0,29.65,SSE,158,12.0,12.0,71,0.00,,,0.48,,2013-04-09 00:32:00,
2013-04-08 19:42:00,70.0,60.0,29.65,SSE,158,12.0,12.0,71,0.00,,,0.48,,2013-04-09 00:42:00,
2013-04-08 19:52:00,69.0,60.0,29.65,SSE,161,2.0,2.0,73,0.00,,,0.48,,2013-04-09 00:52:00,
2013-04-08 20:02:00,69.0,60.0,29.65,SSE,167,1.0,1.0,73,0.00,,,0.48,,2013-04-09 01:02:00,
2013-04-08 20:12:00,69.0,60.0,29.65,SSE,167,1.0,1.0,73,0.00,,,0.48,,2013-04-09 01:12:00,
2013-04-08 20:22:00,68.0,59.0,29.65,SSE,167,0.0,0.0,74,0.00,,,0.48,,2013-04-09 01:22:00,
2013-04-08 20:33:00,68.0,60.0,29.65,SSE,167,0.0,0.0,75,0.00,,,0.48,,2013-04-09 01:33:00,
2013-04-08 20:42:00,68.0,60.0,29.69,SSE,167,0.0,0.0,76,0.00,,,0.48,,2013-04-09 01:42:00,
2013-04-08 20:52:00,68.0,60.0,29.69,SSE,167,0.0,0.0,76,0.00,,,0.48,,2013-04-09 01:52:00,
2013-04-08 21:02:00,67.0,60.0,29.66,SSE,167,0.0,0.0,77,0.00,,,0.48,,2013-04-09 02:02:00,
2013-04-08 21:13:00,67.0,60.0,29.66,SSE,167,0.0,0.0,77,0.00,,,0.48,,2013-04-09 02:13:00,
2013-04-08 21:22:00,67.0,60.0,29.67,SSE,167,0.0,0.0,77,0.00,,,0.48,,2013-04-09 02:22:00,
2013-04-08 21:32:00,67.0,60.0,29.67,SSE,167,0.0,0.0,77,0.00,,,0.39,,2013-04-09 02:32:00,
2013-04-08 21:43:00,67.0,60.0,29.67,SSE,167,0.0,0.0,77,0.00,,,0.39,,2013-04-09 02:43:00,
2013-04-08 21:52:00,67.0,60.0,29.67,SSE,167,0.0,0.0,77,0.00,,,0.39,,2013-04-09 02:52:00,
2013-04-08 22:02:00,66.0,59.0,29.67,SSE,167,0.0,0.0,77,0.00,,,0.39,,2013-04-09 03:02:00,
2013-04-08 22:12:00,66.0,59.0,29.67,SSE,167,0.0,0.0,77,0.00,,,0.39,,2013-04-09 03:12:00,
2013-04-08 22:21:00,66.0,59.0,29.68,SSE,167,0.0,0.0,77,0.00,,,0.39,,2013-04-09 03:21:00,
2013-04-08 22:33:00,67.0,60.0,29.68,SSE,167,0.0,0.0,77,0.00,,,0.39,,2013-04-09 03:33:00,
2013-04-08 22:43:00,67.0,60.0,29.68,SSE,167,0.0,0.0,77,0.00,,,0.39,,2013-04-09 03:43:00,
2013-04-08 22:52:00,67.0,60.0,29.71,SSE,167,0.0,0.0,77,0.00,,,0.39,,2013-04-09 03:52:00,
2013-04-08 23:03:00,67.0,60.0,29.70,SSE,167,0.0,0.0,77,0.00,,,0.39,,2013-04-09 04:03:00,
2013-04-08 23:13:00,67.0,60.0,29.70,SSE,167,0.0,0.0,77,0.00,,,0.39,,2013-04-09 04:13:00,
2013-04-08 23:23:00,67.0,60.0,29.70,SSE,167,0.0,0.0,77,0.00,,,0.39,,2013-04-09 04:23:00,
2013-04-08 23:32:00,66.0,59.0,29.70,SSE,167,0.0,0.0,77,0.00,,,0.27,,2013-04-09 04:32:00,
2013-04-08 23:42:00,66.0,59.0,29.70,SSE,167,0.0,0.0,77,0.00,,,0.27,,2013-04-09 04:42:00,
2013-04-08 23:52:00,66.0,59.0,29.70,SSE,167,0.0,0.0,77,0.00,,,0.27,,2013-04-09 04:52:00,